#timestamp,LO_Frequency,Hit 
1500109215.8,286047018.3,N
1500109235.6,286047016.7,N
1500109255.5,286047013.7,N
1500109275.3,286047011.0,N
1500109295.1,286047015.6,N
1500109315.9,286047016.2,N
1500109335.7,286047016.7,N
1500109355.5,286047018.8,N
1500109375.4,286047014.0,N
1500109395.2,286047011.3,N
1500109415.0,286047013.2,N
1500109415.9,286047013.2,N
1500109435.7,286047015.3,N
1500109455.6,286047017.1,N
1500109475.4,286047015.0,N
1500109495.2,286047018.7,N
1500109515.1,286047016.9,N
1500109516.0,286047016.9,N
1500109535.8,286047011.9,N
1500109555.6,286047009.4,N
1500109575.5,286047009.5,N
1500109595.3,286047010.0,N
1500109615.1,286047008.3,N
1500109635.9,286047008.6,N
1500109655.7,286047006.3,N
1500109675.5,286047006.6,N
1500109695.4,286047006.9,N
1500109715.2,286047008.3,N
1500109735.0,286047011.2,N
1500109735.9,286047011.2,N
1500109755.8,286047013.4,N
1500109775.6,286047008.8,N
1500109795.4,286047010.1,N
1500109815.3,286047013.9,N
1500109835.1,286047013.6,N
1500109836.0,286047013.6,N
1500109855.8,286047010.9,N
1500109875.7,286047012.0,N
1500109895.5,286047011.5,N
1500109915.3,286047011.5,N
1500109935.1,286047012.4,N
1500109955.9,286047010.2,N
1500109975.7,286047010.0,N
1500109995.5,286047010.7,N
1500110015.4,286047009.3,N
1500110035.2,286047011.5,N
1500110055.0,286047021.3,N
1500110055.9,286047021.3,N
1500110075.8,286047029.3,Y
1500110095.6,286047016.2,N
1500110115.4,286047025.1,N
1500110135.3,286047024.5,N
1500110155.1,286047025.0,Y
1500110175.8,286047014.6,N
1500110195.7,286047027.8,Y
1500110215.5,286047016.8,N
1500110235.3,286047013.7,N
1500110255.2,286047018.4,N
1500110275.0,286047018.0,N
1500110275.9,286047018.0,N
1500110295.7,286047007.1,N
1500110315.6,286046995.1,N
1500110335.4,286046989.4,N
1500110355.2,286046988.3,N
1500110375.1,286046981.3,N
1500110376.0,286046981.3,N
1500110395.8,286046977.3,N
1500110415.6,286046979.0,N
1500110435.5,286046980.4,N
1500110455.3,286046977.9,N
1500110475.1,286046975.7,N
1500110495.9,286046975.2,N
1500110515.7,286046972.9,Y
1500110535.6,286046957.3,Y
1500110555.4,286046946.8,Y
1500110575.2,286046926.1,Y
1500110595.1,286046909.6,Y
1500110596.0,286046909.6,Y
1500110615.8,286046867.0,Y
1500110635.7,286046846.3,Y
1500110655.5,286046830.2,Y
1500110675.3,286046814.7,Y
1500110695.2,286046793.9,Y
1500110715.0,286046779.8,Y
1500110715.9,286046779.8,Y
1500110735.8,286046748.6,Y
1500110755.6,286046749.2,Y
1500110775.5,286046739.1,Y
1500110795.3,286046723.4,Y
1500110815.1,286046709.1,Y
1500110835.9,286046694.4,Y
1500110855.7,286046676.7,Y
1500110875.6,286046662.0,Y
1500110895.4,286046640.6,Y
1500110915.2,286046623.7,Y
1500110935.1,286046612.1,Y
1500110936.0,286046612.1,Y
1500110955.8,286046585.5,Y
1500110975.7,286046572.1,Y
1500110995.5,286046558.8,Y
1500111015.4,286046543.9,Y
1500111035.2,286046533.0,Y
1500111055.0,286046521.4,Y
1500111055.9,286046521.4,Y
1500111075.8,286046502.8,Y
1500111095.6,286046492.3,Y
1500111115.5,286046480.8,Y
1500111135.3,286046470.8,Y
1500111155.1,286046460.9,Y
1500111175.9,286046454.8,Y
1500111195.7,286046450.5,Y
1500111215.6,286046449.3,Y
1500111235.4,286046454.0,Y
1500111255.2,286046447.0,Y
1500111275.1,286046436.5,Y
1500111276.0,286046436.5,Y
1500111295.8,286046426.9,Y
1500111315.7,286046421.1,Y
1500111335.5,286046415.7,Y
1500111355.4,286046417.0,Y
1500111375.2,286046415.3,Y
1500111395.0,286046415.3,Y
1500111396.0,286046415.3,Y
1500111415.8,286046412.9,Y
1500111435.6,286046418.3,Y
1500111455.5,286046424.8,Y
1500111475.3,286046433.1,Y
1500111495.2,286046437.4,Y
1500111515.9,286046442.7,Y
1500111535.7,286046440.7,Y
1500111555.6,286046439.3,Y
1500111575.4,286046439.0,Y
1500111595.3,286046440.8,Y
1500111615.1,286046441.0,Y
1500111616.0,286046441.0,Y
1500111635.8,286046451.7,Y
1500111655.7,286046466.2,Y
1500111675.5,286046480.3,Y
1500111695.4,286046491.7,Y
1500111715.2,286046501.6,Y
1500111735.0,286046502.5,Y
1500111736.0,286046502.5,Y
1500111755.8,286046515.2,Y
1500111775.6,286046520.8,Y
1500111795.5,286046523.0,Y
1500111815.3,286046528.2,Y
1500111835.2,286046536.4,Y
1500111855.9,286046544.0,Y
1500111875.7,286046554.8,Y
1500111895.6,286046560.1,Y
1500111915.4,286046572.1,Y
1500111935.3,286046583.6,Y
1500111955.1,286046590.7,Y
1500111975.8,286046602.5,Y
1500111995.7,286046612.6,Y
1500112015.5,286046623.0,Y
1500112035.4,286046628.1,Y
1500112055.2,286046633.3,Y
1500112075.0,286046649.4,N
1500112075.9,286046649.4,N
1500112095.8,286046648.4,N
1500112115.6,286046652.3,N
1500112135.4,286046651.0,N
1500112155.3,286046652.7,N
1500112175.1,286046653.2,N
1500112176.0,286046653.2,N
1500112195.8,286046650.5,N
1500112215.7,286046648.0,N
1500112235.5,286046650.8,N
1500112255.3,286046647.8,N
1500112275.1,286046646.4,N
1500112295.9,286046646.9,N
1500112315.7,286046647.8,N
1500112335.5,286046646.3,N
1500112355.4,286046645.0,N
1500112375.2,286046648.1,N
1500112395.0,286046655.0,N
1500112395.9,286046655.0,N
1500112415.8,286046656.5,N
1500112435.6,286046659.8,N
1500112455.4,286046662.1,N
1500112475.3,286046666.1,N
1500112495.1,286046664.2,N
1500112515.8,286046664.3,N
1500112535.7,286046666.2,N
1500112555.5,286046668.4,N
1500112575.3,286046668.2,N
1500112595.2,286046665.9,N
1500112615.9,286046677.6,N
1500112635.7,286046678.8,N
1500112655.6,286046681.2,N
1500112675.4,286046676.7,N
1500112695.2,286046674.6,N
1500112715.1,286046673.2,N
1500112716.0,286046673.2,N
1500112735.8,286046669.8,N
1500112755.6,286046670.0,N
1500112775.5,286046665.8,N
1500112795.3,286046665.3,N
